Terminal Aerodrome Forecast
Issued by NWS

Home | Current Version | Previous Version | Graphics & Text | Print | Product List | Glossary On
Versions: 1 2 3 4 5 6 7 8 9 10 11 12 13 14 15 16
000
FTUS42 KMHX 231740
TAFISO
TAF
KISO 231740Z 2318/2418 24010KT P6SM SCT080
     FM232100 22010KT P6SM VCTS SCT090CB
      TEMPO 2321/2401 4SM TS BKN090CB BKN100
     FM240200 21012KT P6SM BKN100
     FM240600 21008KT P6SM BKN090
      AMD LTD TO CLD VIS AND WIND=

USA.gov is the U.S. government's official web portal to all federal, state and local government web resources and services.